Le nostre stazioni meteo in Italia

Pubblicità
Il mio iltempo24.it
Torino/Bric Della Croce, Italia (16061): Temperatura & dewpoint: 02.12.2019 15:00:00 - 08.12.2019 15:00:00 (CET)Torino/Bric Della Croce, Italia (16061): velocità del vento: 02.12.2019 15:00:00 - 08.12.2019 15:00:00 (CET)Torino/Bric Della Croce, Italia (16061): direzione del vento: 02.12.2019 15:00:00 - 08.12.2019 15:00:00 (CET)Torino/Bric Della Croce, Italia (16061): visibility: 02.12.2019 15:00:00 - 08.12.2019 15:00:00 (CET)Torino/Bric Della Croce, Italia (16061): ore di luce: 02.12.2019 15:00:00 - 08.12.2019 15:00:00 (CET)
Data & Tempo tt [°C] td [°C] ff [km/h] ff [kn] dd vv [km] sd [min]
08.12.2019 15:00:00 6,8 4,8 0 0 N 12 60
08.12.2019 14:00:00 6,2 4,0 0 0 N 12 60
08.12.2019 13:00:00 6,0 3,7 0 0 N 12 60
08.12.2019 12:00:00 5,8 2,6 0 0 N 12 60
08.12.2019 11:00:00 5,4 0,4 0 0 N 12 60
08.12.2019 10:00:00 5,0 2,9 0 0 N 12 0
08.12.2019 09:00:00 5,0 3,5 5 3 O 12 0
08.12.2019 08:00:00 5,0 4,3 0 0 N 15 0
08.12.2019 07:00:00 5,2 5,2 0 0 N 15 -
08.12.2019 06:00:00 5,4 5,4 0 0 N 15 -
08.12.2019 05:00:00 5,8 5,8 0 0 N 15 -
08.12.2019 04:00:00 5,8 5,8 9 5 S 20 -
08.12.2019 03:00:00 5,2 5,2 11 6 S 20 -
08.12.2019 02:00:00 5,0 4,7 11 6 S 20 -
08.12.2019 01:00:00 5,0 4,7 13 7 S 20 -
08.12.2019 00:00:00 5,0 4,9 16 9 S 20 -
07.12.2019 23:00:00 5,8 4,6 15 8 S 20 -
07.12.2019 22:00:00 6,2 4,4 15 8 SSO 50 -
07.12.2019 21:00:00 6,4 3,9 11 6 SSO 50 -
07.12.2019 20:00:00 6,8 3,8 8 4 SO 50 -
07.12.2019 19:00:00 6,4 3,4 8 4 SSO 50 -
07.12.2019 18:00:00 6,4 3,2 5 3 SSO 50 -
07.12.2019 17:00:00 7,0 2,9 0 0 N 50 12
07.12.2019 16:00:00 8,0 3,7 5 3 SSO 50 60
07.12.2019 15:00:00 7,8 3,7 0 0 N 50 60
07.12.2019 14:00:00 6,4 0,3 0 0 N 50 60
07.12.2019 13:00:00 6,0 -5,3 0 0 N 50 60
07.12.2019 12:00:00 5,4 -7,1 8 4 S 50 60
07.12.2019 11:00:00 4,4 -7,1 0 0 N 50 48
07.12.2019 10:00:00 3,4 -7,4 0 0 N 50 0
07.12.2019 09:00:00 3,2 -7,0 0 0 N 50 0
07.12.2019 08:00:00 3,4 -7,7 0 0 N 50 0
07.12.2019 07:00:00 3,4 -9,2 0 0 N 50 -
07.12.2019 06:00:00 3,4 -11,7 0 0 N 50 -
07.12.2019 05:00:00 3,8 -8,5 0 0 N 50 -
07.12.2019 04:00:00 3,2 -8,5 0 0 N 50 -
07.12.2019 03:00:00 3,0 -8,3 0 0 N 45 -
07.12.2019 02:00:00 3,0 -8,1 0 0 N 50 -
07.12.2019 01:00:00 3,2 -9,1 0 0 N 50 -
07.12.2019 00:00:00 3,0 -8,1 0 0 N 50 -
06.12.2019 23:00:00 3,2 -4,0 0 0 N 40 -
06.12.2019 22:00:00 3,4 -7,4 0 0 N 35 -
06.12.2019 21:00:00 3,0 -5,6 0 0 N 40 -
06.12.2019 20:00:00 3,0 -3,1 0 0 N 50 -
06.12.2019 19:00:00 3,0 -4,4 0 0 N 50 -
06.12.2019 18:00:00 3,4 -7,4 0 0 N 50 -
06.12.2019 17:00:00 3,8 -2,2 0 0 N 25 18
06.12.2019 16:00:00 4,0 1,7 0 0 N 11 60
06.12.2019 15:00:00 4,0 1,9 0 0 N 11 60
06.12.2019 14:00:00 3,4 1,4 0 0 N 11 60
06.12.2019 13:00:00 3,4 1,3 0 0 N 11 60
06.12.2019 12:00:00 3,2 0,6 0 0 N 11 60
06.12.2019 11:00:00 2,6 -0,2 0 0 N 11 60
06.12.2019 10:00:00 2,6 -0,5 0 0 N 12 60
06.12.2019 09:00:00 2,0 -1,6 0 0 N 11 30
06.12.2019 08:00:00 1,6 -2,7 0 0 N 20 0
06.12.2019 07:00:00 1,6 -2,9 0 0 N 25 -
06.12.2019 06:00:00 2,0 -5,0 0 0 N 40 -
06.12.2019 05:00:00 2,0 -6,1 0 0 N 40 -
06.12.2019 04:00:00 2,0 -6,3 0 0 N 40 -
06.12.2019 03:00:00 2,0 -4,7 0 0 N 40 -
06.12.2019 02:00:00 2,0 -5,4 0 0 N 40 -
06.12.2019 01:00:00 2,0 -5,0 0 0 N 40 -
06.12.2019 00:00:00 2,2 -3,7 0 0 N 30 -
05.12.2019 23:00:00 2,2 -2,7 5 3 NE 30 -
05.12.2019 22:00:00 2,4 -3,3 5 3 ENE 30 -
05.12.2019 21:00:00 2,4 -4,6 8 4 NE 30 -
05.12.2019 20:00:00 2,4 -0,7 8 4 N 20 -
05.12.2019 19:00:00 2,6 0,3 8 4 NNO 20 -
05.12.2019 18:00:00 2,8 0,0 5 3 NNO 20 -
05.12.2019 17:00:00 2,8 0,4 0 0 N 15 0
05.12.2019 16:00:00 3,0 -0,8 9 5 NNO 20 6
05.12.2019 15:00:00 3,4 -0,6 0 0 N 25 60
05.12.2019 14:00:00 3,8 -0,8 0 0 N 25 60
05.12.2019 13:00:00 4,4 -0,6 0 0 N 25 60
05.12.2019 12:00:00 4,4 -0,4 0 0 N 20 60
05.12.2019 11:00:00 4,4 -2,7 0 0 N 30 60
05.12.2019 10:00:00 4,0 -3,1 0 0 N 30 60
05.12.2019 09:00:00 4,0 -7,4 4 2 NO 30 6
05.12.2019 08:00:00 3,6 -6,4 0 0 N 50 -
05.12.2019 07:00:00 3,0 -4,0 0 0 N 40 -
05.12.2019 06:00:00 3,0 -4,0 0 0 N 40 -
05.12.2019 05:00:00 3,0 -4,2 8 4 N 40 -
05.12.2019 04:00:00 3,0 -3,8 8 4 NE 40 -
05.12.2019 03:00:00 2,6 -4,6 0 0 N 40 -
05.12.2019 02:00:00 2,4 -2,5 0 0 N 40 -
05.12.2019 01:00:00 2,4 -2,7 0 0 N 40 -
05.12.2019 00:00:00 2,6 -2,3 0 0 N 40 -
04.12.2019 23:00:00 2,4 -1,4 0 0 N 20 -
04.12.2019 22:00:00 2,2 -0,7 0 0 N 20 -
04.12.2019 21:00:00 2,0 -0,9 9 5 ONO 20 -
04.12.2019 20:00:00 2,2 -0,2 5 3 O 20 -
04.12.2019 19:00:00 2,2 -0,2 0 0 N 20 -
04.12.2019 18:00:00 - - - - - - -
04.12.2019 17:00:00 - - - - - - -
04.12.2019 16:00:00 3,0 0,2 0 0 N 20 12
04.12.2019 15:00:00 3,0 0,9 0 0 N 20 0
04.12.2019 14:00:00 2,8 0,5 0 0 N 20 0
04.12.2019 13:00:00 2,6 0,3 0 0 N 20 0
04.12.2019 12:00:00 2,4 0,0 0 0 N 20 0
04.12.2019 11:00:00 2,4 0,3 0 0 N 20 0
04.12.2019 10:00:00 1,8 -1,4 0 0 N 20 0
04.12.2019 09:00:00 1,6 -1,6 8 4 N 20 0
04.12.2019 08:00:00 2,0 -1,4 11 6 NNE 15 0
04.12.2019 07:00:00 2,0 -0,3 5 3 N 12 -
04.12.2019 06:00:00 2,0 -1,1 0 0 N 12 -
04.12.2019 05:00:00 2,0 1,4 0 0 N 12 -
04.12.2019 04:00:00 2,8 0,5 0 0 N 12 -
04.12.2019 03:00:00 3,0 2,0 0 0 N 12 -
04.12.2019 02:00:00 3,0 1,8 8 4 NNE 12 -
04.12.2019 01:00:00 3,0 1,8 11 6 NE 12 -
04.12.2019 00:00:00 3,2 3,1 9 5 ENE 12 -
03.12.2019 23:00:00 3,6 3,5 9 5 NE 12 -
03.12.2019 22:00:00 3,6 2,9 11 6 NE 12 -
03.12.2019 21:00:00 3,6 2,7 11 6 E 0,1 -
03.12.2019 20:00:00 4,0 4,0 0 0 N 0,1 -
03.12.2019 19:00:00 4,0 4,0 0 0 N 0,1 -
03.12.2019 18:00:00 4,4 4,4 0 0 N 0,1 -
03.12.2019 17:00:00 5,0 5,0 0 0 N 0,1 0
03.12.2019 16:00:00 5,0 5,0 0 0 N 0,1 0
03.12.2019 15:00:00 5,0 5,0 8 4 E 0,1 0
03.12.2019 14:00:00 5,0 5,0 0 0 N 0,1 0
03.12.2019 13:00:00 5,0 5,0 0 0 N 0,1 0
03.12.2019 12:00:00 5,0 5,0 0 0 N 0,1 0
03.12.2019 11:00:00 5,0 5,0 0 0 N 0,1 0
03.12.2019 10:00:00 4,8 4,8 0 0 N 0,1 0
03.12.2019 09:00:00 4,8 4,8 0 0 N 0,1 0
03.12.2019 08:00:00 4,6 4,6 0 0 N 0,1 0
03.12.2019 07:00:00 4,6 4,6 0 0 N 0,1 -
03.12.2019 06:00:00 4,4 4,4 9 5 N 0,1 -
03.12.2019 05:00:00 4,6 4,3 13 7 N 0,3 -
03.12.2019 04:00:00 5,2 5,2 11 6 N 0,1 -
03.12.2019 03:00:00 5,2 5,2 11 6 ENE 3,0 -
03.12.2019 02:00:00 5,2 5,2 22 12 NNE 9 -
03.12.2019 01:00:00 5,2 5,2 18 10 ENE 4,0 -
03.12.2019 00:00:00 5,8 3,7 18 10 NNE 50 -
02.12.2019 23:00:00 5,6 2,8 21 11 NNE 50 -
02.12.2019 22:00:00 5,4 3,9 18 10 N 50 -
02.12.2019 21:00:00 5,4 3,2 13 7 N 50 -
02.12.2019 20:00:00 6,8 2,7 5 3 NNO 50 -
02.12.2019 19:00:00 7,4 1,2 5 3 O 50 -
02.12.2019 18:00:00 6,6 0,3 9 5 O 50 -
02.12.2019 17:00:00 7,2 1,1 8 4 SO 50 30
02.12.2019 16:00:00 7,0 4,5 0 0 N 30 60
02.12.2019 15:00:00 8,0 3,8 0 0 N 30 60

tt = Temperatura
td = dewpoint
ff = velocità del vento
dd = direzione del vento
vv = visibility
sd = ore di luce

Stazioni seguenti

WeatherPro
AMSI
MeteoEarth